Weather in Elektrogorsk

Russia / Moscow Oblast     55°52′59″N   38°47′10″E
temp.,
°C
wind,
m/s
gust,
m/s
humid.,
%
clouds,
%
prec.,
mm/h
press.,
hPa
HPBL,
m
1 march, mon
mon100:00−8nne119788 0.0 102121
03:00−9wsw009890 0.1 102321
06:00−9w129678 0.0 102321
09:00−7wsw249579 0.1 1024129
12:00−2wsw369391 0.0 1022390
15:00−1wsw489290 0.1 1021499
18:000wsw41193100 0.0 1018701
21:00+1w51293100 0.1 1016671
2 march, tue
tue200:00+1w51292100 0.0 1013658
03:00+1w51292100 0.0 1012866
06:00+1w51296100 0.1 1009696
09:00+1wnw41093100 0.3 1009802
12:00+1nw4988100 0.1 1007990
15:00+1nw598599 0.3 10071037
18:00−1nw4118899 0.1 1007662
21:00−1nnw4118996 0.2 1009950
3 march, wed
wed300:00−4nw3118867 0.1 1010488
03:00−4nw5128673 0.1 1012762
06:00−6nnw5128870 0.0 1013757
09:00−5nnw5128283 0.0 1016840
12:00−1nw49770 0.0 1016948
15:00−1wnw598633 0.1 1015910
18:00−2wnw41090100 0.1 1013717
21:00−2w41193100 0.2 1013810
4 march, thu
thu400:00−2w51093100 0.1 1010786
03:00−1wsw61389100 0.2 1007790
06:000wsw61487100 0.1 1003846
09:00−1wsw71387100 0.1 10001073
12:000w61287100 0.1 9991073
15:00+1wsw61196100 0.3 998884
18:00−2wnw31081100 1.9 999986
21:00−4wnw3989100 1.9 1001378
5 march, fri
fri500:00−7wnw38944 0.0 1004224
03:00−8nw269618 0.0 1006180
06:00−10nw239524 0.0 100869
09:00−8nw239212 0.0 1009196
12:00−4wnw237549 0.0 1010693
15:00−3w126870 0.0 1011961
18:00−7wnw118393 0.0 101121
21:00−9nnw018972 0.0 101321